Atmospheric History
02/08/2018 18:03  to  2/9/2018 18:03
Change End Date:
To complete the export process:
1) Select all of the data below
2) Copy the data to the clipboard
3) Open a word processor such as Notepad
4) Paste the data into the word processor
5) Save the file

Date/Time (MST), AirTemp, RH, Dewpoint ,AvgWindSpeed, GustWindSpeed, WindDirection, PrecipType, PrecipIntensity, PrecipAccumulation, PrecipRate
02/09/2018 18:00, -14, 82, -18 ,10, 10, W, None, None, ,  
02/09/2018 17:54, -14, 81, -18 ,9, 9, W, None, None, ,  
02/09/2018 17:50, -14, 81, -18 ,9, 9, W, None, None, ,  
02/09/2018 17:40, -13, 83, -16 ,9, 10, SW, None, None, ,  
02/09/2018 17:39, -13, 83, -16 ,9, 10, SW, None, None, ,  
02/09/2018 17:30, -13, 83, -17 ,9, 10, W, None, None, ,  
02/09/2018 17:24, -13, 84, -16 ,9, 10, W, None, None, ,  
02/09/2018 17:20, -12, 84, -16 ,9, 10, W, None, None, ,  
02/09/2018 17:10, -13, 82, -17 ,10, 10, W, None, None, ,  
02/09/2018 17:09, -13, 82, -17 ,9, 10, W, None, None, ,  
02/09/2018 17:00, -12, 81, -16 ,9, 9, W, None, None, ,  
02/09/2018 16:54, -12, 79, -16 ,7, 9, W, None, None, ,  
02/09/2018 16:50, -11, 79, -15 ,7, 9, W, None, None, ,  
02/09/2018 16:40, -9, 79, -14 ,9, 12, W, None, None, ,  
02/09/2018 16:39, -9, 80, -13 ,10, 13, W, None, None, ,  
02/09/2018 16:30, -9, 79, -14 ,12, 13, W, None, None, ,  
02/09/2018 16:24, -9, 78, -14 ,10, 12, W, None, None, ,  
02/09/2018 16:20, -8, 79, -13 ,11, 12, W, None, None, ,  
02/09/2018 16:10, -7, 79, -11 ,12, 14, W, None, None, ,  
02/09/2018 16:09, -7, 79, -11 ,12, 14, W, None, None, ,  
02/09/2018 15:59, -5, 80, -10 ,14, 15, W, None, None, ,  
02/09/2018 15:54, -5, 79, -10 ,12, 14, W, None, None, ,  
02/09/2018 15:49, -4, 78, -9 ,13, 14, W, None, None, ,  
02/09/2018 15:39, -3, 76, -9 ,12, 13, W, None, None, ,  
02/09/2018 15:39, -3, 76, -9 ,12, 13, W, None, None, ,  
02/09/2018 15:29, -3, 75, -9 ,11, 12, W, None, None, ,  
02/09/2018 15:24, -3, 76, -9 ,11, 12, W, None, None, ,  
02/09/2018 15:19, -3, 76, -9 ,12, 12, W, None, None, ,  
02/09/2018 15:09, -3, 77, -8 ,10, 12, W, None, None, ,  
02/09/2018 15:09, -3, 77, -8 ,9, 12, W, None, None, ,  
02/09/2018 14:59, -3, 76, -8 ,10, 12, W, None, None, ,  
02/09/2018 14:54, -3, 76, -9 ,10, 12, W, None, None, ,  
02/09/2018 14:49, -3, 76, -9 ,10, 12, W, None, None, ,  
02/09/2018 14:39, -3, 75, -9 ,11, 12, W, None, None, ,  
02/09/2018 14:39, -3, 75, -9 ,11, 12, W, None, None, ,  
02/09/2018 14:29, -3, 76, -9 ,11, 12, W, None, None, ,  
02/09/2018 14:24, -3, 76, -9 ,11, 12, W, None, None, ,  
02/09/2018 14:19, -3, 76, -9 ,10, 12, W, None, None, ,  
02/09/2018 14:09, -3, 77, -9 ,9, 12, W, None, None, ,  
02/09/2018 14:09, -3, 77, -9 ,9, 12, W, None, None, ,  
02/09/2018 13:59, -4, 77, -9 ,10, 12, W, None, None, ,  
02/09/2018 13:54, -4, 76, -9 ,11, 12, W, None, None, ,  
02/09/2018 13:49, -4, 76, -9 ,10, 12, W, None, None, ,  
02/09/2018 13:39, -4, 76, -9 ,9, 11, W, None, None, ,  
02/09/2018 13:39, -4, 76, -9 ,10, 11, W, None, None, ,  
02/09/2018 13:29, -3, 74, -9 ,9, 11, W, None, None, ,  
02/09/2018 13:24, -3, 73, -9 ,9, 11, W, None, None, ,  
02/09/2018 13:19, -2, 74, -9 ,10, 11, W, None, None, ,  
02/09/2018 13:09, -2, 71, -9 ,9, 11, W, None, None, ,  
02/09/2018 13:09, -2, 70, -9 ,9, 11, W, None, None, ,  
02/09/2018 12:59, -2, 71, -9 ,11, 12, W, None, None, ,  
02/09/2018 12:54, -2, 72, -9 ,11, 12, W, None, None, ,  
02/09/2018 12:49, -2, 71, -9 ,11, 12, W, None, None, ,  
02/09/2018 12:39, -3, 73, -9 ,10, 11, W, None, None, ,  
02/09/2018 12:39, -3, 73, -9 ,10, 11, W, None, None, ,  
02/09/2018 12:29, -2, 73, -8 ,9, 11, W, None, None, ,  
02/09/2018 12:24, -2, 72, -9 ,9, 10, W, None, None, ,  
02/09/2018 12:19, -2, 72, -9 ,9, 10, W, None, None, ,  
02/09/2018 12:09, -2, 73, -9 ,7, 9, W, Yes, , ,  
02/09/2018 12:09, -2, 73, -9 ,7, 9, W, Yes, , ,  
02/09/2018 11:59, -3, 75, -9 ,7, 9, W, None, None, ,  
02/09/2018 11:54, -3, 76, -9 ,8, 9, W, Yes, , ,  
02/09/2018 11:49, -3, 74, -9 ,7, 9, W, None, None, ,  
02/09/2018 11:39, -2, 76, -8 ,7, 9, W, None, None, ,  
02/09/2018 11:39, -2, 76, -8 ,7, 9, W, None, None, ,  
02/09/2018 11:29, -2, 77, -8 ,7, 9, W, None, None, ,  
02/09/2018 11:24, -3, 77, -8 ,7, 9, W, None, None, ,  
02/09/2018 11:19, -2, 78, -7 ,9, 9, W, None, None, ,  
02/09/2018 11:09, -3, 79, -8 ,7, 9, W, None, None, ,  
02/09/2018 11:08, -3, 79, -8 ,7, 9, W, None, None, ,  
02/09/2018 10:58, -4, 80, -9 ,9, 9, W, None, None, ,  
02/09/2018 10:54, -4, 79, -9 ,7, 9, W, None, None, ,  
02/09/2018 10:48, -3, 79, -8 ,7, 9, W, Yes, , ,  
02/09/2018 10:39, -1, 80, -6 ,7, 7, W, Yes, , ,  
02/09/2018 10:38, -1, 80, -6 ,7, 7, W, Yes, , ,  
02/09/2018 10:28, -3, 80, -8 ,6, 7, W, None, None, ,  
02/09/2018 10:24, -3, 81, -8 ,6, 7, W, Yes, , ,  
02/09/2018 10:18, -4, 80, -9 ,7, 7, SW, None, None, ,  
02/09/2018 10:09, -4, 80, -9 ,6, 7, SW, None, None, ,  
02/09/2018 10:08, -4, 80, -9 ,6, 7, SW, None, None, ,  
02/09/2018 09:58, -5, 80, -9 ,5, 7, SW, None, None, ,  
02/09/2018 09:54, -4, 81, -9 ,6, 7, W, Yes, , ,  
02/09/2018 09:48, -5, 81, -9 ,7, 7, W, None, None, ,  
02/09/2018 09:39, -5, 81, -9 ,6, 7, SW, None, None, ,  
02/09/2018 09:38, -5, 81, -9 ,6, 7, SW, None, None, ,  
02/09/2018 09:28, -5, 81, -9 ,3, 4, W, None, None, ,  
02/09/2018 09:24, -5, 81, -9 ,3, 3, SW, None, None, ,  
02/09/2018 09:18, -4, 81, -8 ,2, 3, SW, None, None, ,  
02/09/2018 09:09, -4, 82, -8 ,0, 2, SW, Yes, , ,  
02/09/2018 09:08, -4, 82, -9 ,1, 2, SW, Yes, , ,  
02/09/2018 08:58, -5, 81, -9 ,1, 2, SW, None, None, ,  
02/09/2018 08:54, -4, 81, -8 ,2, 2, W, Yes, , ,  
02/09/2018 08:48, -4, 82, -8 ,1, 3, W, Yes, , ,  
02/09/2018 08:39, -4, 81, -8 ,3, 4, W, Yes, , ,  
02/09/2018 08:38, -4, 81, -8 ,3, 4, W, Yes, , ,  
02/09/2018 08:28, -4, 82, -8 ,0, 0, NW, Yes, , ,  
02/09/2018 08:24, -4, 82, -8 ,0, 0, NE, None, None, ,  
02/09/2018 08:18, -5, 82, -9 ,0, 2, N, None, None, ,  
02/09/2018 08:09, -6, 82, -10 ,1, 3, N, Yes, , ,  
02/09/2018 08:08, -6, 82, -10 ,1, 3, N, Yes, , ,  
02/09/2018 07:58, -6, 81, -10 ,3, 4, N, Yes, , ,  
02/09/2018 07:53, -6, 81, -10 ,4, 4, N, None, None, ,  
02/09/2018 07:48, -6, 81, -10 ,3, 4, N, None, None, ,  
02/09/2018 07:39, -7, 81, -11 ,4, 6, N, Yes, , ,  
02/09/2018 07:38, -7, 81, -11 ,4, 6, N, None, None, ,  
02/09/2018 07:28, -7, 81, -11 ,1, 2, NW, Yes, , ,  
02/09/2018 07:24, -7, 81, -11 ,0, 2, N, Yes, , ,  
02/09/2018 07:18, -7, 81, -11 ,1, 4, N, Yes, , ,  
02/09/2018 07:08, -7, 81, -12 ,2, 4, NE, Yes, , ,  
02/09/2018 07:08, -7, 81, -12 ,2, 4, N, Yes, , ,  
02/09/2018 06:58, -8, 81, -12 ,1, 4, E, Yes, , ,  
02/09/2018 06:53, -8, 81, -12 ,2, 4, NE, Yes, , ,  
02/09/2018 06:48, -8, 81, -12 ,3, 4, N, Yes, , ,  
02/09/2018 06:39, -8, 81, -12 ,2, 2, NE, Yes, , ,  
02/09/2018 06:38, -8, 81, -12 ,2, 2, NE, Yes, , ,  
02/09/2018 06:28, -8, 81, -12 ,1, 3, E, Yes, , ,  
02/09/2018 06:24, -8, 81, -12 ,1, 3, E, Yes, , ,  
02/09/2018 06:17, -8, 81, -12 ,2, 2, E, Yes, , ,  
02/09/2018 06:09, -8, 81, -12 ,2, 4, NE, Yes, , ,  
02/09/2018 06:07, -8, 81, -12 ,2, 4, NE, Yes, , ,  
02/09/2018 05:57, -8, 81, -12 ,2, 4, E, None, None, ,  
02/09/2018 05:54, -8, 81, -12 ,3, 4, NE, None, None, ,  
02/09/2018 05:47, -8, 81, -13 ,2, 4, NE, None, None, ,  
02/09/2018 05:39, -9, 81, -13 ,4, 7, NE, None, None, ,  
02/09/2018 05:37, -9, 81, -13 ,4, 7, NE, None, None, ,  
02/09/2018 05:27, -9, 81, -13 ,4, 5, NE, None, None, ,  
02/09/2018 05:24, -9, 81, -13 ,3, 5, NE, None, None, ,  
02/09/2018 05:17, -9, 81, -13 ,4, 5, NE, None, None, ,  
02/09/2018 05:09, -10, 80, -14 ,2, 3, NE, None, None, ,  
02/09/2018 05:07, -10, 80, -14 ,2, 2, NE, None, None, ,  
02/09/2018 04:57, -10, 80, -14 ,1, 4, NE, None, None, ,  
02/09/2018 04:54, -9, 81, -13 ,3, 4, NE, None, None, ,  
02/09/2018 04:47, -10, 79, -15 ,2, 6, E, None, None, ,  
02/09/2018 04:39, -8, 82, -12 ,3, 6, NW, None, None, ,  
02/09/2018 04:37, -8, 83, -12 ,3, 6, N, None, None, ,  
02/09/2018 04:27, -11, 79, -16 ,3, 5, NE, None, None, ,  
02/09/2018 04:24, -10, 80, -14 ,1, 2, NE, None, None, ,  
02/09/2018 04:17, -10, 81, -14 ,0, 1, NW, None, None, ,  
02/09/2018 04:09, -11, 79, -15 ,0, 1, W, None, None, ,  
02/09/2018 04:07, -10, 79, -15 ,0, 1, SW, None, None, ,  
02/09/2018 03:57, -8, 82, -12 ,1, 2, SE, None, None, ,  
02/09/2018 03:54, -9, 82, -13 ,1, 2, SE, None, None, ,  
02/09/2018 03:47, -9, 81, -13 ,1, 2, S, None, None, ,  
02/09/2018 03:39, -7, 82, -11 ,2, 2, SE, None, None, ,  
02/09/2018 03:37, -8, 82, -12 ,1, 2, SE, None, None, ,  
02/09/2018 03:27, -8, 80, -12 ,0, 1, S, None, None, ,  
02/09/2018 03:24, -8, 80, -12 ,0, 3, S, None, None, ,  
02/09/2018 03:17, -7, 82, -10 ,2, 4, N, None, None, ,  
02/09/2018 03:09, -7, 82, -11 ,3, 6, N, None, None, ,  
02/09/2018 03:07, -8, 82, -12 ,4, 6, N, None, None, ,  
02/09/2018 02:57, -8, 81, -13 ,0, 1, E, None, None, ,  
02/09/2018 02:54, -9, 80, -13 ,0, 1, E, None, None, ,  
02/09/2018 02:47, -8, 80, -12 ,0, 1, E, None, None, ,  
02/09/2018 02:39, -7, 82, -10 ,1, 2, E, None, None, ,  
02/09/2018 02:37, -7, 82, -11 ,1, 2, E, None, None, ,  
02/09/2018 02:27, -7, 83, -10 ,1, 4, N, None, None, ,  
02/09/2018 02:24, -7, 82, -11 ,2, 7, N, Yes, , ,  
02/09/2018 02:17, -8, 80, -12 ,6, 8, N, None, None, ,  
02/09/2018 02:09, -7, 81, -11 ,7, 9, N, None, None, ,  
02/09/2018 02:07, -7, 82, -11 ,7, 9, N, None, None, ,  
02/09/2018 01:57, -5, 82, -9 ,9, 11, N, None, None, ,  
02/09/2018 01:54, -5, 82, -9 ,9, 11, N, None, None, ,  
02/09/2018 01:47, -5, 83, -8 ,9, 12, N, None, None, ,  
02/09/2018 01:39, -5, 83, -9 ,9, 10, N, None, None, ,  
02/09/2018 01:37, -5, 83, -9 ,9, 9, N, None, None, ,  
02/09/2018 01:27, -4, 83, -7 ,7, 9, N, None, None, ,  
02/09/2018 01:24, -4, 83, -7 ,7, 9, N, None, None, ,  
02/09/2018 01:16, -4, 83, -8 ,7, 9, N, None, None, ,  
02/09/2018 01:09, -5, 83, -8 ,9, 9, N, None, None, ,  
02/09/2018 01:06, -5, 83, -8 ,6, 7, NW, None, None, ,  
02/09/2018 00:56, -5, 84, -9 ,7, 7, N, None, None, ,  
02/09/2018 00:54, -6, 83, -10 ,6, 7, N, None, None, ,  
02/09/2018 00:46, -7, 82, -10 ,5, 6, N, None, None, ,  
02/09/2018 00:39, -6, 81, -10 ,4, 6, NW, None, None, ,  
02/09/2018 00:36, -5, 82, -9 ,2, 2, NW, None, None, ,  
02/09/2018 00:26, -6, 84, -9 ,2, 2, N, None, None, ,  
02/09/2018 00:24, -6, 84, -10 ,2, 2, N, None, None, ,  
02/09/2018 00:16, -7, 84, -11 ,2, 2, N, None, None, ,  
02/09/2018 00:09, -9, 80, -14 ,2, 3, NW, None, None, ,  
02/09/2018 00:06, -9, 78, -14 ,2, 3, NW, None, None, ,  
02/08/2018 23:56, -6, 85, -10 ,1, 3, NW, None, None, ,  
02/08/2018 23:54, -7, 83, -11 ,2, 3, N, None, None, ,  
02/08/2018 23:46, -7, 82, -11 ,2, 3, N, None, None, ,  
02/08/2018 23:39, -7, 81, -11 ,3, 4, N, None, None, ,  
02/08/2018 23:36, -7, 80, -11 ,3, 4, N, None, None, ,  
02/08/2018 23:26, -1, 84, -5 ,3, 4, N, None, None, ,  
02/08/2018 23:24, -1, 85, -4 ,3, 4, N, None, None, ,  
02/08/2018 23:16, -1, 87, -4 ,4, 4, N, None, None, ,  
02/08/2018 23:09, -3, 83, -7 ,4, 4, N, None, None, ,  
02/08/2018 23:06, -3, 81, -8 ,3, 4, N, None, None, ,  
02/08/2018 22:56, -1, 83, -5 ,2, 4, N, Yes, , ,  
02/08/2018 22:54, -1, 84, -4 ,2, 4, N, None, None, ,  
02/08/2018 22:46, -1, 83, -5 ,4, 4, N, None, None, ,  
02/08/2018 22:39, -1, 84, -4 ,4, 4, N, None, None, ,  
02/08/2018 22:36, -1, 83, -4 ,4, 4, N, None, None, ,  
02/08/2018 22:26, 0, 83, -4 ,3, 4, NE, Yes, , ,  
02/08/2018 22:24, 0, 83, -4 ,3, 6, NE, None, None, ,  
02/08/2018 22:16, 0, 83, -3 ,5, 7, NE, None, None, ,  
02/08/2018 22:09, 1, 83, -3 ,6, 7, NE, None, None, ,  
02/08/2018 22:06, 1, 83, -3 ,6, 7, NE, None, None, ,  
02/08/2018 21:56, 1, 84, -3 ,6, 7, NE, None, None, ,  
02/08/2018 21:54, 1, 83, -3 ,6, 9, NE, None, None, ,  
02/08/2018 21:46, 1, 83, -3 ,9, 12, N, None, None, ,  
02/08/2018 21:39, 1, 83, -3 ,11, 13, N, None, None, ,  
02/08/2018 21:36, 1, 83, -3 ,12, 13, N, None, None, ,  
02/08/2018 21:26, 1, 83, -3 ,12, 13, N, None, None, ,  
02/08/2018 21:24, 1, 84, -3 ,11, 12, N, None, None, ,  
02/08/2018 21:16, 1, 85, -3 ,10, 12, N, None, None, ,  
02/08/2018 21:09, 1, 85, -3 ,9, 11, N, None, None, ,  
02/08/2018 21:06, 1, 85, -3 ,9, 13, N, None, None, ,  
02/08/2018 20:56, 1, 85, -3 ,12, 16, N, None, None, ,  
02/08/2018 20:54, 1, 85, -3 ,13, 16, NE, None, None, ,  
02/08/2018 20:46, 0, 85, -3 ,12, 13, N, None, None, ,  
02/08/2018 20:39, 0, 85, -3 ,11, 12, N, None, None, ,  
02/08/2018 20:36, 0, 85, -3 ,9, 15, N, None, None, ,  
02/08/2018 20:26, 0, 85, -3 ,11, 13, NE, None, None, ,  
02/08/2018 20:24, 0, 85, -3 ,10, 15, NE, None, None, ,  
02/08/2018 20:16, 0, 85, -4 ,13, 16, NE, None, None, ,  
02/08/2018 20:09, -1, 84, -4 ,13, 16, NE, None, None, ,  
02/08/2018 20:05, -1, 84, -5 ,13, 16, NE, None, None, ,  
02/08/2018 19:55, 0, 85, -4 ,14, 16, NE, None, None, ,  
02/08/2018 19:54, 0, 85, -4 ,14, 16, NE, None, None, ,  
02/08/2018 19:45, 0, 85, -3 ,12, 16, NE, None, None, ,  
02/08/2018 19:39, 0, 85, -4 ,14, 17, NE, None, None, ,  
02/08/2018 19:35, 0, 85, -3 ,14, 17, NE, None, None, ,  
02/08/2018 19:25, 0, 85, -3 ,12, 14, NE, None, None, ,  
02/08/2018 19:24, 1, 85, -3 ,11, 13, NE, None, None, ,  
02/08/2018 19:15, 1, 84, -3 ,11, 16, N, None, None, ,  
02/08/2018 19:09, 2, 85, -2 ,13, 16, N, None, None, ,  
02/08/2018 19:05, 2, 85, -2 ,13, 16, N, None, None, ,  
02/08/2018 18:55, 2, 85, -1 ,13, 18, NE, None, None, ,  
02/08/2018 18:54, 2, 85, -1 ,14, 18, NE, None, None, ,  
02/08/2018 18:45, 2, 85, -1 ,17, 20, NE, None, None, ,  
02/08/2018 18:39, 2, 84, -1 ,18, 21, NE, None, None, ,  
02/08/2018 18:35, 2, 85, -1 ,17, 22, NE, None, None, ,  
02/08/2018 18:25, 3, 84, -1 ,21, 24, NE, None, None, ,  
02/08/2018 18:24, 3, 84, -1 ,20, 24, NE, None, None, ,  
02/08/2018 18:15, 3, 86, 0 ,19, 25, NE, None, None, ,  
02/08/2018 18:09, 3, 85, 0 ,21, 25, NE, None, None, ,  
02/08/2018 18:05, 4, 85, 0 ,18, 23, NE, None, None, ,  
Change End Date:

Copyright © 1998-2015 Vaisala, Inc.
All Rights Reserved
Send comments about the data to:
SCAN Web ® is a registered trademark of Vaisala, Inc.
SCAN Web Version 6.0